STARLINK-1281, 45370

Orbit data source: Space-Track

STARLINK-1281, 45370 is a payload satellite owned by SpaceX/Seattle (US) in LEO that was launched on Wed, 18 Mar 2020 UTC via an FALCON 9 launch vehicle from the Air Force Eastern Test Range (AFETR). Payload-class satellites include a variety of spacecraft equipped with specific instruments for various scientific and technological missions. These include communications satellites like Starlink; space stations such as the ISS; scientific satellites like the Hubble; Earth observation satellites from companies like Planet Labs, Umbra, and HawkEye 360; GPS; miniature CubeSats for education and research; and military/defense satellites.

Loading next visibility...
Identifier
45370, 2020-019L
Orbit
LEO
Country
Flag of USUS
Related business
Manufacturer
SpaceX/Seattle
Mission
Operational Commercial Communications
Bus & Motor
STARLINK, Unknown motor
Mass
260 kg wet, ~248 kg dry
Launch date (UTC)
2020-03-18 (6 years ago)
Launch vehicle
FALCON 9
Launch site
Air Force Eastern Test Range (AFETR)
Object type
Payload
Rocket body
Debris
Shape & HBR
Box + 1 Pan, 10.1 m
Radar Cross Section
13.562 m², Large (>1 m²)

Expand to show TLE details & history
Last TLE update: 7 hours ago

TLE from 7 hours ago
0 STARLINK-1281
1 45370U 20019L   25315.31073121 -.00003753  00000-0 -23315-3 0  9992
2 45370  53.0560 338.0456 0001530  91.0891 269.0273 15.06401371311895
Epoch: 2025-11-11T07:27Z
TLE epoch observation values (Epoch: 2025-11-11T07:27:27.176Z)
Latitude
-0.00005°
Longitude
175.48322°
Altitude
548.105 km
Speed
7.589 km/s
True Right ascension
22h 32m 10s
True Declination
0° 00' 00"
Sunlit
Object was in daylight at epoch
Visualization orbit readout
Latitude
Unknown
Longitude
Unknown
Altitude
Unknown
Speed
Unknown
Apparent Right ascension
Unknown
Apparent Declination
Unknown
Sunlit
N/A
Visualization observer readout
Local Sidereal Time
11:14:34
Azimuth
Unknown
Elevation
Unknown
Doppler factor
Unknown
Orbital elements
Apogee altitude
548.537 km
Perigee altitude
546.418 km
Semi-major axis
6,925.615 km
Eccentricity
0.00015
Inclination
53.056°
RAAN
338.0456°
Arg. of periapsis
91.0891°
True anomaly
269.00977°
Mean anomaly
269.0273°
Eccentric anomaly
269.01854°
Mean motion
3.76579 °/min
Orbital period
95.6 mins
BSTAR
-0.00023315
Loading maneuver chart data...
Computing Atmospheric mass density...
Loading historical data...
Loading historical data...
Loading historical data...
Loading historical data...
Loading historical data...
Loading historical data...
Loading historical data...

Documentation

Showing up to 5 results
|